Location: Seclusion Ranch
(37.6167°N, 104.1333°W)
Time: 15:01:06
(UTC-07:00)

Tiangong 2 - Visible Passes

Search period start: 19 November 2018 00:00
Search period end: 29 November 2018 00:00
Orbit: 382 x 393 km, 42.8° (Epoch: 19 November)

Date Brightness Start Highest point End Pass type
(mag) Time Alt. Az. Time Alt. Az. Time Alt. Az.
23 Nov 4.0 05:29:31 10° S 05:31:44 17° SE 05:33:57 10° E visible
24 Nov 1.6 06:06:32 10° SW 06:09:40 61° SSE 06:12:50 10° ENE visible
25 Nov 2.7 05:09:39 21° SSW 05:11:08 33° SSE 05:14:03 10° E visible
26 Nov 4.5 04:14:30 12° ESE 04:14:30 12° ESE 04:14:57 10° E visible
26 Nov 1.0 05:46:49 16° WSW 05:49:13 75° NNW 05:52:25 10° ENE visible
27 Nov 2.3 04:51:26 42° E 04:51:26 42° E 04:53:46 10° ENE visible
28 Nov 1.4 05:28:12 40° NW 05:28:48 47° NNW 05:31:55 10° ENE visible
